Location: Clatteringshaws Loch
(55.0508°N, 4.2860°W)
Time: 00:47:26
(UTC+01:00)

Amateur Radio Satellites - All Passes

Search period start: 03 September 2014 00:17
Search period end: 04 September 2014 00:17
Location: Clatteringshaws Loch, 55.0508°N, 4.2860°W

Satellite Date Start Highest point End Downlink Frequencies (MHz)
Time Altitude Azimuth
Saudisat 1A 03 Sep 00:49:04 00:53:19 44° 330° (NNW) 00:57:35 436.775 MHz
KITSAT 1 03 Sep 01:04:07 01:12:15 84° 315° (NW) 01:20:24 435.175 FM
Sapphire 03 Sep 01:31:10 01:36:36 70° 233° (SW) 01:42:00 437.095 MHz 1200 baud AX-25 AFSK
PCSat 03 Sep 02:00:29 02:05:38 44° 240° (WSW) 02:10:46 145.825 MHz
Oscar 19 03 Sep 02:02:23 02:06:38 25° 91° (E) 02:10:51 437.125 CW, 437.150 USB
AO-Echo 03 Sep 02:05:43 02:07:53 13° 84° (E) 02:10:03 ?
OPAL 03 Sep 02:08:41 02:10:55 13° 39° (NE) 02:13:09 ?
Saudisat 1A 03 Sep 02:30:11 02:33:51 25° 353° (N) 02:37:31 436.775 MHz
Oscar 16 03 Sep 02:37:29 02:42:30 45° 98° (E) 02:47:28 437.025 USB, Beacon 2401.1428
ITAMSAT 1 03 Sep 02:42:04 02:46:19 25° 91° (E) 02:50:32 435.822 SSB
Uribyol 2 03 Sep 02:51:01 02:55:35 30° 94° (E) 03:00:08 436.500 FM
KITSAT 1 03 Sep 03:00:59 03:08:40 44° 342° (NNW) 03:16:21 435.175 FM
TMSAT-1 03 Sep 03:08:38 03:12:05 17° 86° (E) 03:15:31 436.925 FM
JAS-1B 03 Sep 03:10:28 03:17:01 41° 93° (E) 03:22:39 435.800 - 435.900 CW/SSB
AO-27 03 Sep 03:11:40 03:16:35 41° 97° (E) 03:21:28 436.795 MHz FM
Sapphire 03 Sep 03:15:55 03:19:08 16° 254° (WSW) 03:22:20 437.095 MHz 1200 baud AX-25 AFSK
Oscar 19 03 Sep 03:41:16 03:46:28 67° 291° (WNW) 03:51:37 437.125 CW, 437.150 USB
AO-Echo 03 Sep 03:42:48 03:47:32 76° 105° (ESE) 03:52:15 ?
OPAL 03 Sep 03:43:48 03:48:39 44° 60° (ENE) 03:53:34 ?
AO-7 03 Sep 03:46:39 03:50:47 14° 79° (ENE) 03:54:53 29.400 - 29.500 MHz
Gurwin Techsat 1B 03 Sep 03:58:08 04:03:18 49° 99° (E) 04:08:26 435.225 FM
SO-50 03 Sep 04:00:04 04:04:18 42° 125° (SE) 04:08:41 436.795 FM
Saudisat 1A 03 Sep 04:10:42 04:14:36 29° 17° (NNE) 04:18:29 436.775 MHz
Oscar 16 03 Sep 04:17:02 04:21:50 38° 299° (WNW) 04:26:36 437.025 USB, Beacon 2401.1428
ITAMSAT 1 03 Sep 04:21:07 04:26:17 67° 291° (WNW) 04:31:26 435.822 SSB
Uribyol 2 03 Sep 04:30:17 04:35:22 55° 294° (WNW) 04:40:26 436.500 FM
Uosat F 03 Sep 04:36:44 04:40:18 19° 88° (E) 04:43:52 435.120 FM
TMSAT-1 03 Sep 04:47:29 04:52:50 85° 106° (ESE) 04:58:09 436.925 FM
AO-27 03 Sep 04:51:18 04:56:10 41° 298° (WNW) 05:01:00 436.795 MHz FM
KITSAT 1 03 Sep 04:58:26 05:05:59 40° 10° (N) 05:13:31 435.175 FM
JAS-1B 03 Sep 05:01:07 05:07:58 51° 300° (WNW) 05:13:49 435.800 - 435.900 CW/SSB
Oscar 19 03 Sep 05:21:45 05:24:58 17° 312° (NW) 05:28:11 437.125 CW, 437.150 USB
AO-Echo 03 Sep 05:22:21 05:25:53 22° 305° (NW) 05:29:26 ?
OPAL 03 Sep 05:22:52 05:27:38 39° 261° (W) 05:32:29 ?
STRAND 1 03 Sep 05:33:59 05:38:07 26° 55° (NE) 05:42:15 ?
AO-7 03 Sep 05:37:31 05:45:40 55° 102° (ESE) 05:53:44 29.400 - 29.500 MHz
Gurwin Techsat 1B 03 Sep 05:38:22 05:43:11 36° 300° (WNW) 05:48:00 435.225 FM
RS-15 03 Sep 05:38:33 05:40:16 11° 88° (E) 05:41:58 29.354 - 29.394 USB, Beacon 29.352 USB
SO-50 03 Sep 05:40:24 05:44:51 51° 327° (NNW) 05:49:27 436.795 FM
UOSAT-12 03 Sep 05:41:04 05:45:21 38° 124° (SE) 05:49:44 437.025 FM, 437.400 FM
Saudisat 1A 03 Sep 05:50:21 05:54:49 75° 40° (NE) 05:59:14 436.775 MHz
Oscar 16 03 Sep 05:58:55 05:59:53 11° 320° (NW) 06:00:51 437.025 USB, Beacon 2401.1428
ITAMSAT 1 03 Sep 06:01:46 06:04:57 17° 312° (NW) 06:08:08 435.822 SSB
Uribyol 2 03 Sep 06:11:10 06:13:52 14° 315° (NW) 06:16:34 436.500 FM
Uosat F 03 Sep 06:14:42 06:19:44 82° 289° (WNW) 06:24:45 435.120 FM
TMSAT-1 03 Sep 06:28:09 06:32:13 23° 307° (NW) 06:36:16 436.925 FM
AO-27 03 Sep 06:32:54 06:34:28 11° 319° (NW) 06:36:01 436.795 MHz FM
Hamsat 03 Sep 06:42:53 06:46:48 31° 94° (E) 06:50:40 145.90 MHz
JAS-1B 03 Sep 06:52:33 06:56:54 17° 326° (NW) 07:00:54 435.800 - 435.900 CW/SSB
KITSAT 1 03 Sep 06:54:41 07:02:47 67° 38° (NE) 07:10:50 435.175 FM
JAS-2 03 Sep 06:55:33 07:00:27 39° 97° (E) 07:05:38 435.800 - 435.900 CW/SSB, 435.910 FM
STRAND 1 03 Sep 07:11:50 07:16:55 71° 256° (WSW) 07:22:03 ?
UOSAT-12 03 Sep 07:20:47 07:25:25 57° 325° (NW) 07:30:07 437.025 FM, 437.400 FM
Gurwin Techsat 1B 03 Sep 07:21:10 07:21:48 10° 322° (NW) 07:22:26 435.225 FM
SO-50 03 Sep 07:22:23 07:26:20 27° 351° (N) 07:30:23 436.795 FM
Saudisat 1A 03 Sep 07:30:27 07:34:02 24° 241° (WSW) 07:37:35 436.775 MHz
AO-7 03 Sep 07:30:34 07:38:31 52° 305° (NW) 07:46:25 29.400 - 29.500 MHz
RS-15 03 Sep 07:39:12 07:49:15 44° 114° (ESE) 07:59:15 29.354 - 29.394 USB, Beacon 29.352 USB
Uosat F 03 Sep 07:54:26 07:57:53 19° 309° (NW) 08:01:19 435.120 FM
Hamsat 03 Sep 08:18:46 08:22:53 40° 294° (WNW) 08:26:56 145.90 MHz
SO-67 03 Sep 08:21:40 08:25:03 48° 100° (E) 08:28:25 435.3500 MHz FM
JAS-2 03 Sep 08:40:50 08:45:43 42° 297° (WNW) 08:50:51 435.800 - 435.900 CW/SSB, 435.910 FM
KITSAT 1 03 Sep 08:50:23 08:58:02 48° 242° (WSW) 09:05:39 435.175 FM
STRAND 1 03 Sep 08:54:37 08:57:05 14° 276° (W) 08:59:34 ?
UOSAT-12 03 Sep 09:02:20 09:06:26 28° 349° (N) 09:10:33 437.025 FM, 437.400 FM
SO-50 03 Sep 09:03:58 09:08:07 30° 16° (NNE) 09:12:20 436.795 FM
HO-68 03 Sep 09:14:21 09:20:00 24° 88° (E) 09:25:37 435.675 MHz FM
AO-7 03 Sep 09:23:48 09:29:40 22° 330° (NNW) 09:35:31 29.400 - 29.500 MHz
RS-15 03 Sep 09:49:53 10:00:54 80° 321° (NW) 10:11:58 29.354 - 29.394 USB, Beacon 29.352 USB
SO-67 03 Sep 09:55:19 09:57:51 19° 299° (WNW) 10:00:23 435.3500 MHz FM
UKube-1 03 Sep 10:21:16 10:25:11 32° 96° (E) 10:29:06 145.840 MHz, 145.915 MHz
Oscar 11 03 Sep 10:23:40 10:27:22 26° 93° (E) 10:31:01 145.825 FM, Beacon 2401.500 USB
JAS-2 03 Sep 10:28:24 10:29:38 11° 320° (NW) 10:30:53 435.800 - 435.900 CW/SSB, 435.910 FM
JAS-1B 03 Sep 10:29:12 10:31:46 12° 21° (NNE) 10:34:14 435.800 - 435.900 CW/SSB
UOSAT-12 03 Sep 10:43:39 10:47:48 29° 13° (NNE) 10:51:57 437.025 FM, 437.400 FM
SO-50 03 Sep 10:44:40 10:49:24 69° 38° (NE) 10:54:13 436.795 FM
KITSAT 1 03 Sep 10:48:34 10:51:27 12° 265° (W) 10:54:20 435.175 FM
FUNcube-1 03 Sep 10:59:07 11:02:58 26° 92° (E) 11:06:50 145.950 - 145.970 MHz USB
ISS 03 Sep 11:00:03 11:02:43 22° 153° (SSE) 11:05:24 145.800 FM
HO-68 03 Sep 11:01:29 11:08:42 89° 110° (ESE) 11:15:53 435.675 MHz FM
AO-7 03 Sep 11:15:39 11:19:35 14° 357° (N) 11:23:31 29.400 - 29.500 MHz
Oscar 19 03 Sep 11:49:30 11:52:46 17° 48° (NE) 11:56:02 437.125 CW, 437.150 USB
UKube-1 03 Sep 11:57:25 12:01:30 40° 296° (WNW) 12:05:34 145.840 MHz, 145.915 MHz
Oscar 11 03 Sep 11:59:33 12:03:48 50° 292° (WNW) 12:08:01 145.825 FM, Beacon 2401.500 USB
RS-15 03 Sep 12:04:07 12:14:45 53° 352° (N) 12:25:34 29.354 - 29.394 USB, Beacon 29.352 USB
JAS-1B 03 Sep 12:12:51 12:19:54 27° 46° (NE) 12:26:10 435.800 - 435.900 CW/SSB
Oscar 16 03 Sep 12:23:35 12:27:55 28° 56° (NE) 12:32:16 437.025 USB, Beacon 2401.1428
UOSAT-12 03 Sep 12:24:02 12:28:46 62° 36° (NE) 12:33:27 437.025 FM, 437.400 FM
SO-50 03 Sep 12:25:35 12:29:43 30° 239° (WSW) 12:33:55 436.795 FM
ITAMSAT 1 03 Sep 12:30:06 12:33:28 18° 49° (NE) 12:36:50 435.822 SSB
FUNcube-1 03 Sep 12:35:13 12:39:37 52° 292° (WNW) 12:44:05 145.950 - 145.970 MHz USB
ISS 03 Sep 12:35:48 12:39:00 44° 173° (S) 12:42:12 145.800 FM
Uribyol 2 03 Sep 12:38:35 12:42:20 21° 51° (NE) 12:46:05 436.500 FM
HO-68 03 Sep 12:49:44 12:55:45 30° 312° (NW) 13:01:45 435.675 MHz FM
MaSat-1 03 Sep 12:56:22 13:00:54 34° 112° (ESE) 13:05:31 437.345 MHz
AO-27 03 Sep 12:58:57 13:03:12 27° 55° (NE) 13:07:27 436.795 MHz FM
TMSAT-1 03 Sep 12:59:49 13:02:19 14° 44° (NE) 13:04:50 436.925 FM
AO-7 03 Sep 13:03:59 13:09:23 20° 25° (NNE) 13:14:46 29.400 - 29.500 MHz
AO-Echo 03 Sep 13:24:45 13:29:15 37° 63° (ENE) 13:33:39 ?
Oscar 19 03 Sep 13:26:09 13:31:17 69° 69° (ENE) 13:36:29 437.125 CW, 437.150 USB
Oscar 11 03 Sep 13:38:02 13:39:03 11° 313° (NW) 13:40:03 145.825 FM, Beacon 2401.500 USB
Gurwin Techsat 1B 03 Sep 13:47:40 13:52:17 31° 58° (ENE) 13:56:55 435.225 FM
JAS-1B 03 Sep 14:00:09 14:09:30 73° 67° (ENE) 14:17:30 435.800 - 435.900 CW/SSB
Oscar 16 03 Sep 14:01:47 14:06:56 66° 257° (WSW) 14:12:08 437.025 USB, Beacon 2401.1428
UOSAT-12 03 Sep 14:04:28 14:08:45 34° 237° (WSW) 14:12:59 437.025 FM, 437.400 FM
ITAMSAT 1 03 Sep 14:07:03 14:12:12 73° 70° (ENE) 14:17:23 435.822 SSB
ISS 03 Sep 14:12:17 14:15:26 39° 193° (SSW) 14:18:34 145.800 FM
FUNcube-1 03 Sep 14:13:34 14:15:07 12° 312° (NW) 14:16:41 145.950 - 145.970 MHz USB
Uribyol 2 03 Sep 14:16:01 14:21:11 87° 73° (ENE) 14:26:24 436.500 FM
RS-15 03 Sep 14:18:19 14:29:12 62° 25° (NNE) 14:40:22 29.354 - 29.394 USB, Beacon 29.352 USB
Uosat F 03 Sep 14:21:15 14:23:41 14° 45° (NE) 14:26:08 435.120 FM
MaSat-1 03 Sep 14:32:41 14:37:45 59° 313° (NW) 14:42:49 437.345 MHz
TMSAT-1 03 Sep 14:36:04 14:41:10 51° 65° (ENE) 14:46:17 436.925 FM
AO-27 03 Sep 14:37:11 14:42:21 70° 256° (WSW) 14:47:33 436.795 MHz FM
HO-68 03 Sep 14:38:32 14:41:21 13° 337° (NNW) 14:44:10 435.675 MHz FM
AO-7 03 Sep 14:52:34 15:00:14 43° 50° (NE) 15:07:54 29.400 - 29.500 MHz
AO-Echo 03 Sep 15:03:24 15:08:03 41° 262° (W) 15:12:36 ?
Oscar 19 03 Sep 15:06:58 15:11:08 24° 270° (W) 15:15:21 437.125 CW, 437.150 USB
Gurwin Techsat 1B 03 Sep 15:26:47 15:32:01 59° 259° (WSW) 15:37:18 435.225 FM
JAS-2 03 Sep 15:35:51 15:36:54 11° 40° (NE) 15:37:57 435.800 - 435.900 CW/SSB, 435.910 FM
Oscar 16 03 Sep 15:45:03 15:47:20 13° 278° (W) 15:49:38 437.025 USB, Beacon 2401.1428
ITAMSAT 1 03 Sep 15:48:13 15:52:15 23° 270° (W) 15:56:18 435.822 SSB
ISS 03 Sep 15:49:25 15:51:35 16° 212° (SSW) 15:53:44 145.800 FM
JAS-1B 03 Sep 15:51:54 16:00:31 39° 267° (W) 16:08:07 435.800 - 435.900 CW/SSB
Uosat F 03 Sep 15:56:39 16:01:31 55° 66° (ENE) 16:06:25 435.120 FM
Uribyol 2 03 Sep 15:57:49 16:01:23 19° 273° (W) 16:04:59 436.500 FM
Hamsat 03 Sep 16:10:35 16:12:00 11° 49° (NE) 16:13:25 145.90 MHz
MaSat-1 03 Sep 16:11:42 16:15:44 22° 335° (NNW) 16:19:40 437.345 MHz
TMSAT-1 03 Sep 16:16:33 16:21:19 34° 266° (W) 16:26:07 436.925 FM
AO-27 03 Sep 16:20:22 16:22:52 13° 277° (W) 16:25:22 436.795 MHz FM
Sapphire 03 Sep 16:20:58 16:25:12 24° 111° (ESE) 16:29:28 437.095 MHz 1200 baud AX-25 AFSK
RS-15 03 Sep 16:31:09 16:42:03 71° 233° (SW) 16:53:20 29.354 - 29.394 USB, Beacon 29.352 USB
AO-7 03 Sep 16:44:26 16:52:45 69° 253° (WSW) 17:01:04 29.400 - 29.500 MHz
PCSat 03 Sep 16:49:01 16:53:59 38° 118° (ESE) 16:58:59 145.825 MHz
Gurwin Techsat 1B 03 Sep 17:11:30 17:13:10 11° 279° (W) 17:14:51 435.225 FM
JAS-2 03 Sep 17:15:35 17:20:48 41° 62° (ENE) 17:25:42 435.800 - 435.900 CW/SSB, 435.910 FM
OPAL 03 Sep 17:25:07 17:29:49 32° 97° (E) 17:34:28 ?
Uosat F 03 Sep 17:36:17 17:40:37 29° 266° (W) 17:44:58 435.120 FM
Hamsat 03 Sep 17:42:50 17:47:05 54° 69° (ENE) 17:51:22 145.90 MHz
MaSat-1 03 Sep 17:51:29 17:54:27 15° 358° (N) 17:57:19 437.345 MHz
Sapphire 03 Sep 18:02:39 18:08:05 85° 312° (NW) 18:13:34 437.095 MHz 1200 baud AX-25 AFSK
HO-68 03 Sep 18:07:02 18:10:58 16° 30° (NNE) 18:14:55 435.675 MHz FM
PCSat 03 Sep 18:31:55 18:37:17 58° 319° (NW) 18:42:40 145.825 MHz
AO-7 03 Sep 18:41:33 18:47:11 19° 277° (W) 18:52:51 29.400 - 29.500 MHz
Oscar 10/S400 03 Sep 18:42:11 18:57:49 26° 144° (SE) 19:30:59 145.825 - 145.975 CW/USB, Beacon 145.810 USB
RS-15 03 Sep 18:44:23 18:52:28 24° 259° (W) 19:00:47 29.354 - 29.394 USB, Beacon 29.352 USB
JAS-2 03 Sep 19:00:36 19:06:01 42° 262° (W) 19:11:03 435.800 - 435.900 CW/SSB, 435.910 FM
SO-67 03 Sep 19:01:19 19:04:41 51° 71° (ENE) 19:08:06 435.3500 MHz FM
OPAL 03 Sep 19:03:51 19:08:57 54° 297° (WNW) 19:14:01 ?
STRAND 1 03 Sep 19:15:32 19:19:38 24° 91° (E) 19:23:43 ?
Hamsat 03 Sep 19:19:50 19:23:21 24° 269° (W) 19:26:55 145.90 MHz
MaSat-1 03 Sep 19:29:30 19:33:13 21° 22° (NNE) 19:36:41 437.345 MHz
Sapphire 03 Sep 19:47:22 19:52:13 32° 336° (NNW) 19:57:05 437.095 MHz 1200 baud AX-25 AFSK
UKube-1 03 Sep 19:50:01 19:52:17 14° 50° (NE) 19:54:33 145.840 MHz, 145.915 MHz
HO-68 03 Sep 19:50:25 19:56:58 41° 54° (NE) 20:03:32 435.675 MHz FM
Oscar 11 03 Sep 19:53:29 19:54:19 11° 47° (NE) 19:55:09 145.825 FM, Beacon 2401.500 USB
PCSat 03 Sep 20:17:10 20:21:45 27° 344° (NNW) 20:26:21 145.825 MHz
FUNcube-1 03 Sep 20:30:46 20:31:09 10° 46° (NE) 20:31:33 145.950 - 145.970 MHz USB
SO-67 03 Sep 20:35:42 20:38:03 17° 270° (W) 20:40:24 435.3500 MHz FM
OPAL 03 Sep 20:43:58 20:46:51 15° 318° (NW) 20:49:43 ?
STRAND 1 03 Sep 20:54:14 20:59:20 68° 291° (WNW) 21:04:24 ?
MaSat-1 03 Sep 21:06:29 21:11:16 56° 46° (NE) 21:15:28 437.345 MHz
UKube-1 03 Sep 21:23:27 21:27:46 70° 70° (ENE) 21:32:07 145.840 MHz, 145.915 MHz
Oscar 11 03 Sep 21:25:21 21:29:33 49° 67° (ENE) 21:33:47 145.825 FM, Beacon 2401.500 USB
Sapphire 03 Sep 21:32:54 21:37:13 23° 1° (N) 21:41:32 437.095 MHz 1200 baud AX-25 AFSK
HO-68 03 Sep 21:37:24 21:44:28 63° 256° (WSW) 21:51:35 435.675 MHz FM
KITSAT 1 03 Sep 21:37:42 21:39:56 11° 94° (E) 21:42:11 435.175 FM
Saudisat 1A 03 Sep 21:44:19 21:46:59 16° 114° (ESE) 21:49:40 436.775 MHz
PCSat 03 Sep 22:02:24 22:06:50 24° 10° (N) 22:11:15 145.825 MHz
FUNcube-1 03 Sep 22:02:27 22:06:33 47° 67° (ENE) 22:10:45 145.950 - 145.970 MHz USB
STRAND 1 03 Sep 22:34:34 22:37:43 17° 312° (NW) 22:40:52 ?
MaSat-1 03 Sep 22:43:57 22:47:58 29° 250° (WSW) 22:51:33 437.345 MHz
UKube-1 03 Sep 23:01:23 23:04:28 19° 270° (W) 23:07:33 145.840 MHz, 145.915 MHz
Oscar 11 03 Sep 23:02:18 23:05:58 26° 267° (W) 23:09:41 145.825 FM, Beacon 2401.500 USB
Sapphire 03 Sep 23:17:11 23:22:09 34° 27° (NNE) 23:27:05 437.095 MHz 1200 baud AX-25 AFSK
Saudisat 1A 03 Sep 23:21:29 23:25:54 77° 134° (SE) 23:30:21 436.775 MHz
KITSAT 1 03 Sep 23:25:43 23:33:17 46° 117° (ESE) 23:40:52 435.175 FM
HO-68 03 Sep 23:29:41 23:33:43 16° 279° (W) 23:37:47 435.675 MHz FM
FUNcube-1 03 Sep 23:39:36 23:43:12 26° 268° (W) 23:46:53 145.950 - 145.970 MHz USB
PCSat 03 Sep 23:46:18 23:51:32 45° 34° (NE) 23:56:44 145.825 MHz
